This is the latest recevied weather packets stored in our database for station/object NE8U. If no packets are shown the sender has not sent any weather packets the latest 10 day(s).
| Time | Temp. | Humidity | Pressure | Rain* | Wind** | Luminosity | Snow |
|---|---|---|---|---|---|---|---|
| 1778054461 | 13.89° C | 54% | 1016 hPa | 0 mm | - | 0 W/m² | - |
| 1778054159 | 13.89° C | 54% | 1016.2 hPa | 0 mm | - | 0 W/m² | - |
| 1778053855 | 13.89° C | 55% | 1016.2 hPa | 0 mm | - | 0 W/m² | - |
| 1778053553 | 13.89° C | 55% | 1016.3 hPa | 0 mm | - | 0 W/m² | - |
| 1778053250 | 13.33° C | 57% | 1016.2 hPa | 0 mm | - | 0 W/m² | - |
| 1778052948 | 13.89° C | 54% | 1016 hPa | 0 mm | - | 0 W/m² | - |
| 1778052645 | 13.89° C | 55% | 1016 hPa | 0 mm | - | 0 W/m² | - |
| 1778052342 | 13.89° C | 56% | 1016 hPa | 0 mm | - | 0 W/m² | - |
| 1778052039 | 14.44° C | 54% | 1015.9 hPa | 0 mm | - | 0 W/m² | - |
| 1778051737 | 15° C | 51% | 1015.9 hPa | 0 mm | - | 0 W/m² | - |
| 1778051434 | 15° C | 48% | 1015.9 hPa | 0 mm | - | 0 W/m² | - |
| 1778051131 | 15° C | 49% | 1015.7 hPa | 0 mm | - | 0 W/m² | - |
| 1778050828 | 15° C | 49% | 1015.9 hPa | 0 mm | - | 0 W/m² | - |
| 1778050526 | 15.56° C | 49% | 1015.8 hPa | 0 mm | - | 0 W/m² | - |
| 1778050223 | 15.56° C | 48% | 1015.8 hPa | 0 mm | - | 0 W/m² | - |
| 1778049920 | 15.56° C | 48% | 1015.9 hPa | 0 mm | - | 0 W/m² | - |
| 1778049615 | 15.56° C | 47% | 1015.8 hPa | 0 mm | - | 0 W/m² | - |
| 1778049313 | 16.11° C | 47% | 1015.8 hPa | 0 mm | - | 0 W/m² | - |
| 1778049010 | 16.11° C | 46% | 1015.9 hPa | 0 mm | - | 0 W/m² | - |
| 1778048709 | 16.11° C | 46% | 1015.6 hPa | 0 mm | - | 0 W/m² | - |
| 1778048405 | 16.11° C | 45% | 1015.8 hPa | 0 mm | - | 0 W/m² | - |
| 1778048101 | 16.11° C | 46% | 1015.7 hPa | 0 mm | - | 0 W/m² | - |
| 1778047799 | 16.11° C | 47% | 1015.8 hPa | 0 mm | - | 0 W/m² | - |
| 1778047497 | 16.11° C | 47% | 1015.8 hPa | 0 mm | - | 0 W/m² | - |
| 1778047194 | 16.67° C | 47% | 1015.9 hPa | 0 mm | - | 0 W/m² | - |
* Rain latest hour (hover to see other rain measurements)
** Current wind speed in m/s (hover to see current wind gust speed)